Flight Track Log - Related Links

Times and Time Zones

All times are in EST time to prevent confusion due to time zone crossing. See the SKW4764 flight status page for this flight to view local times or setup timezone preferences in your user account.

Time Position Orientation Groundspeed Altitude Reporting Facility
EST Latitude Longitude Course Direction KTS MPH feet Rate Location/Type
Mon 07:28:46 PM 46.8564 -114.0675 174° South 185 213 5,800  Level Salt Lake Center
Mon 07:29:47 PM 46.7889 -114.0622 177° South 219 252 9,200 3,098 Climbing Salt Lake Center
Mon 07:30:48 PM 46.7150 -114.0650 181° South 261 300 12,100 2,585 Climbing Salt Lake Center
Mon 07:31:50 PM 46.6367 -114.0633 179° South 279 321 14,500 2,244 Climbing Salt Lake Center
Mon 07:32:51 PM 46.5453 -114.0661 181° South 303 349 16,700 2,000 Climbing Salt Lake Center
Mon 07:33:53 PM 46.4533 -114.0681 181° South 328 377 18,600 1,415 Climbing Salt Lake Center
Mon 07:34:54 PM 46.3683 -114.0681 180° South 361 415 19,600 1,463 Climbing Salt Lake Center
Mon 07:35:56 PM 46.2417 -114.0717 181° South 378 435 21,600 1,659 Climbing Salt Lake Center
Mon 07:36:57 PM 46.1339 -114.0717 180° South 387 445 23,000 1,220 Climbing Salt Lake Center
Mon 07:37:59 PM 46.0231 -114.0719 180° South 395 455 24,100 1,024 Climbing Salt Lake Center
Mon 07:39:00 PM 45.9100 -114.0731 180° South 403 464 25,100 976 Climbing Salt Lake Center
Mon 07:40:02 PM 45.7933 -114.0753 181° South 416 479 26,100 780 Climbing Salt Lake Center
Mon 07:41:03 PM 45.6722 -114.0756 180° South 432 497 26,700 732 Climbing Salt Lake Center
Mon 07:42:05 PM 45.5278 -114.0781 181° South 444 511 27,600 677 Climbing Salt Lake Center
Mon 07:43:07 PM 45.4011 -114.0797 181° South 453 521 28,100 537 Climbing Salt Lake Center
Mon 07:44:08 PM 45.2700 -114.0808 180° South 466 536 28,700 878 Climbing Salt Lake Center
Mon 07:45:10 PM 45.1392 -114.0828 181° South 469 540 29,900 1,073 Climbing Salt Lake Center
Mon 07:46:11 PM 45.0128 -114.0783 179° South 459 528 30,900 537 Climbing Salt Lake Center
Mon 07:47:13 PM 44.8942 -113.9989 155° Southeast 469 540 31,000 49 Climbing Salt Lake Center
Mon 07:48:14 PM 44.7700 -113.9111 153° Southeast 483 556 31,000  Level Salt Lake Center
Mon 07:49:16 PM 44.6311 -113.8144 154° Southeast 493 567 31,000  Level Salt Lake Center
Mon 07:50:18 PM 44.5044 -113.7308 155° Southeast 509 586 31,000  Level Salt Lake Center
Mon 07:51:19 PM 44.3600 -113.6319 154° Southeast 517 595 31,000  Level Salt Lake Center
Mon 07:52:21 PM 44.2397 -113.5497 154° Southeast 510 587 31,000  Level Salt Lake Center
Mon 07:53:22 PM 44.0942 -113.4542 155° Southeast 513 590 31,000  Level Salt Lake Center
Mon 07:54:24 PM 43.9725 -113.3719 154° Southeast 512 589 31,000  Level Salt Lake Center
Mon 07:55:26 PM 43.8506 -113.2908 154° Southeast 508 585 31,000  Level Salt Lake Center
Mon 07:56:27 PM 43.7106 -113.1983 154° Southeast 504 580 31,000  Level Salt Lake Center
Mon 07:57:29 PM 43.5911 -113.1203 155° Southeast 499 574 31,000  Level Salt Lake Center
Mon 07:58:30 PM 43.4506 -113.0272 154° Southeast 502 578 31,000  Level Salt Lake Center
Mon 07:59:32 PM 43.3333 -112.9519 155° Southeast 493 567 31,000 -387 Level Salt Lake Center
Mon 08:00:34 PM 43.2050 -112.8683 155° Southeast 464 534 30,200 -488 Descending Salt Lake Center
Mon 08:01:35 PM 43.0953 -112.7969 155° Southeast 458 527 30,000 -98 Descending Salt Lake Center
Mon 08:02:37 PM 42.9694 -112.7158 155° Southeast 451 519 30,000  Level Salt Lake Center
Mon 08:03:39 PM 42.8589 -112.6467 155° Southeast 454 522 30,000  Level Salt Lake Center
Mon 08:04:40 PM 42.7383 -112.6108 168° South 462 532 30,000  Level Salt Lake Center
Mon 08:05:42 PM 42.5975 -112.5697 168° South 473 544 30,000  Level Salt Lake Center
Mon 08:06:43 PM 42.4683 -112.5308 167° South 477 549 30,000 -98 Level Salt Lake Center
Mon 08:07:45 PM 42.3383 -112.4931 168° South 479 551 29,800 -878 Descending Salt Lake Center
Mon 08:08:46 PM 42.2125 -112.4553 167° South 466 536 28,200 -1,610 Descending Salt Lake Center
Mon 08:09:48 PM 42.0897 -112.4533 179° South 448 516 26,500 -2,032 Descending Salt Lake Center
Mon 08:10:50 PM 41.9389 -112.4633 183° South 454 522 24,000 -2,195 Descending Salt Lake Center
Mon 08:11:51 PM 41.8144 -112.4742 184° South 454 522 22,000 -2,098 Descending Salt Lake Center
Mon 08:12:53 PM 41.7058 -112.4792 182° South 405 466 19,700 -2,466 Descending Salt Lake Center
Mon 08:13:04 PM 41.6811 -112.4758 174° South 414 476 19,000 -2,897 Descending Salt Lake Center
Mon 08:13:22 PM 41.6467 -112.4758 180° South 410 472 18,300 -2,040 Descending Salt Lake Center
Mon 08:13:54 PM 41.5936 -112.4861 188° South 403 464 17,300 -1,300 Descending Salt Lake Center
Mon 08:14:22 PM 41.5425 -112.4822 177° South 379 436 17,000 -290 Descending Salt Lake Center
Mon 08:14:56 PM 41.4975 -112.4567 157° South 379 436 17,000 -393 Level Salt Lake Center
Mon 08:15:23 PM 41.4525 -112.4153 145° Southeast 369 425 16,600 -787 Descending Salt Lake Center
Mon 08:15:57 PM 41.4086 -112.3919 158° South 367 422 16,200 -984 Descending Salt Lake Center
Mon 08:16:24 PM 41.3589 -112.3525 149° Southeast 375 432 15,600 -968 Descending Salt Lake Center
Mon 08:16:59 PM 41.3150 -112.3256 155° Southeast 380 437 15,200 -1,279 Descending Salt Lake Center
Mon 08:17:25 PM 41.2619 -112.2856 150° Southeast 381 438 14,300 -1,742 Descending Salt Lake Center
Mon 08:18:01 PM 41.2028 -112.2456 153° Southeast 386 444 13,400 -1,500 Descending Salt Lake Center
Mon 08:18:25 PM 41.1692 -112.2169 147° Southeast 384 442 12,800 -1,475 Descending Salt Lake Center
Mon 08:19:02 PM 41.1136 -112.1764 151° Southeast 376 433 11,900 -1,574 Descending Salt Lake Center
Mon 08:19:26 PM 41.0744 -112.1494 153° Southeast 369 425 11,200 -871 Descending Salt Lake Center
Mon 08:20:04 PM 41.0219 -112.1356 169° South 357 411 11,000 -197 Descending Salt Lake Center
Mon 08:20:27 PM 40.9797 -112.1278 172° South 351 404 11,000  Level Salt Lake Center
Mon 08:21:06 PM 40.9272 -112.1158 170° South 349 402 11,000  Level Salt Lake Center
Mon 08:21:28 PM 40.8817 -112.1097 174° South 355 409 11,000  Level Salt Lake Center
Mon 08:22:07 PM 40.8319 -112.1014 173° South 346 398 11,000  Level Salt Lake Center
Mon 08:22:29 PM 40.7956 -112.0992 177° South 272 313 11,000 -290 Level Salt Lake Center
Mon 08:23:09 PM 40.7631 -112.0925 171° South 239 275 10,700 -1,200 Descending Salt Lake Center
Mon 08:23:29 PM 40.7297 -112.0931 181° South 226 260 9,800 -1,645 Descending Salt Lake Center
Mon 08:24:11 PM 40.6897 -112.0847 171° South 220 253 9,000 -787 Descending Salt Lake Center
Mon 08:24:30 PM 40.6703 -112.0850 181° South 206 237 9,000 -295 Level Salt Lake Center
Mon 08:25:12 PM 40.6444 -112.0561 140° Southeast 206 237 8,700 -787 Descending Salt Lake Center
Mon 08:25:31 PM 40.6456 -112.0367 86° East 192 221 8,200 -1,452 Descending Salt Lake Center
Mon 08:26:14 PM 40.6572 -111.9919 71° East 181 208 7,200 -1,475 Descending Salt Lake Center
Mon 08:26:32 PM 40.6728 -111.9881 11° North 177 204 6,700 -1,258 Descending Salt Lake Center
Mon 08:27:16 PM 40.7033 -111.9872 North 166 191 5,900 -1,082 Descending Salt Lake Center
Mon 08:27:33 PM 40.7161 -111.9903 350° North 152 175 5,600 -885 Descending Salt Lake Center
Mon 08:28:17 PM 40.7411 -111.9914 358° North 141 162 5,000 -900 Descending Salt Lake Center
Mon 08:28:33 PM 40.7561 -111.9964 346° North 139 160 4,700 -774 Descending Salt Lake Center
Mon 08:29:19 PM 40.7794 -111.9956 North 138 159 4,200 -652 Descending Salt Lake Center

Login

Don't have an account? Register now (free) for customized features, flight alerts, and more!